STARLINK-1371, 45542

Orbit data source: Space-Track

STARLINK-1371, 45542 is a payload satellite owned by SpaceX/Seattle (US) in LEO that was launched on Wed, 22 Apr 2020 UTC via an FALCON 9 launch vehicle from the Air Force Eastern Test Range (AFETR). Payload-class satellites include a variety of spacecraft equipped with specific instruments for various scientific and technological missions. These include communications satellites like Starlink; space stations such as the ISS; scientific satellites like the Hubble; Earth observation satellites from companies like Planet Labs, Umbra, and HawkEye 360; GPS; miniature CubeSats for education and research; and military/defense satellites.

Loading next visibility...
Identifier
45542, 2020-025M
Orbit
LEO
Country
Flag of USUS
Related business
Manufacturer
SpaceX/Seattle
Mission
Operational Commercial Communications
Bus & Motor
STARLINK, Unknown motor
Mass
260 kg wet, ~248 kg dry
Launch date (UTC)
2020-04-22 (6 years ago)
Launch vehicle
FALCON 9
Launch site
Air Force Eastern Test Range (AFETR)
Object type
Payload
Rocket body
Debris
Shape & HBR
Box + 1 Pan, 10.1 m
Radar Cross Section
13.562 m², Large (>1 m²)

Expand to show TLE details & history
Last TLE update: 22 hours ago

TLE from 22 hours ago
0 STARLINK-1371
1 45542U 20025M   25354.49043434  .00000659  00000-0  63169-4 0  9998
2 45542  53.0565 102.1551 0001160  88.5525 271.5597 15.06387111313154
Epoch: 2025-12-20T11:46Z
TLE epoch observation values (Epoch: 2025-12-20T11:46:13.526Z)
Latitude
-0.00004°
Longitude
-163.71777°
Altitude
548.109 km
Speed
7.589 km/s
True Right ascension
06h 48m 37s
True Declination
0° 00' 00"
Sunlit
Object was in full shadow at epoch
Visualization orbit readout
Latitude
Unknown
Longitude
Unknown
Altitude
Unknown
Speed
Unknown
Apparent Right ascension
Unknown
Apparent Declination
Unknown
Sunlit
N/A
Visualization observer readout
Local Sidereal Time
09:11:48
Azimuth
Unknown
Elevation
Unknown
Doppler factor
Unknown
Orbital elements
Apogee altitude
548.325 km
Perigee altitude
546.718 km
Semi-major axis
6,925.658 km
Eccentricity
0.00012
Inclination
53.0565°
RAAN
102.1551°
Arg. of periapsis
88.5525°
True anomaly
271.54641°
Mean anomaly
271.5597°
Eccentric anomaly
271.55306°
Mean motion
3.76575 °/min
Orbital period
95.6 mins
BSTAR
0.000063169
Loading maneuver chart data...
Computing Atmospheric mass density...
Loading historical data...
Loading historical data...
Loading historical data...
Loading historical data...
Loading historical data...
Loading historical data...
Loading historical data...

Documentation

Showing up to 5 results
|